Regional Weather Roundup
Issued by NWS Upton, NY

Current Version | Previous Version | Graphics & Text | Print | Product List | Glossary Off
Versions: 1 2 3 4 5 6 7 8 9 10 11 12 13 14 15 16 17 18 19 20 21 22 23 24 25 26 27

000
ASUS41 KOKX 221009
RWROKX

REGIONAL WEATHER ROUNDUP
NATIONAL WEATHER SERVICE NEW YORK NY
600 AM EDT THU JUN 22 2017

NOTE: "FAIR" INDICATES FEW OR NO CLOUDS BELOW 12,000 FEET WITH NO
SIGNIFICANT WEATHER AND/OR OBSTRUCTIONS TO VISIBILITY.

NYZ071-072-176-178-NJZ106-104-221100-
NEW YORK CITY METRO AREA

CITY           SKY/WX    TMP DP  RH WIND       PRES   REMARKS
Central Park   CLEAR     68  57  68 NE5       30.02R
Bronx Bot Gard   N/A     64  54  68 NE2       30.02R
LaGuardia APRT MOCLDY    68  57  68 E3        29.99R
Kennedy INTL   PTCLDY    68  60  75 N3        30.00R
Breezy Point     N/A     64 N/A N/A N1          N/A
Newark/Liberty PTCLDY    67  58  72 NE6       30.00R
Teterboro      CLEAR     64  58  80 N3        30.00R
$$

NYZ177-179-078>081-221100-
LONG ISLAND NEW YORK

CITY           SKY/WX    TMP DP  RH WIND       PRES   REMARKS
Jones Beach      N/A     66 N/A N/A NE2         N/A
Matinecock PT  NOT AVBL
Farmingdale    NOT AVBL
MacArthur/ISP  PTCLDY    62  58  86 N5        30.00R
Shirley        PTCLDY    60  60 100 CALM      30.00R
Mt Sinai Harb    N/A     61 N/A N/A MISG        N/A
Westhampton    CLEAR     57  53  86 N6        30.01R
East Hampton   FAIR      59  55  87 NW5       29.99R
Montauk          N/A     64  58  80 CALM      30.00R
$$

NYZ052-065-067-221100-
HUDSON VALLEY

CITY           SKY/WX    TMP DP  RH WIND       PRES   REMARKS
White Plains   CLEAR     63  55  77 NW6       30.00R
Larchmont Harb   N/A     64 N/A N/A NW3         N/A
Croton O-T Hud   N/A     61 N/A N/A NE2         N/A
Newburgh       CLEAR     57  55  94 CALM      30.03R
Montgomery     CLEAR     53  52  96 SW3       30.02R
Poughkeepsie   CLEAR     55  53  93 CALM      30.00R
Albany         CLEAR     56  51  84 CALM      30.01R
$$

NJZ001-105-106-008-010-013-015-019>022-104-221100-
NEW JERSEY

CITY           SKY/WX    TMP DP  RH WIND       PRES   REMARKS
Newark/Liberty PTCLDY    67  58  72 NE6       30.00R
Teterboro      CLEAR     64  58  80 N3        30.00R
Caldwell       CLEAR     62  59  90 CALM      30.02R
Somerville     PTCLDY    59  58  96 CALM      29.99R
Linden         FAIR      65  60  85 CALM      30.00R
Perth Amboy      N/A     66 N/A N/A NW2         N/A
Sussex         PTCLDY    55  55 100 CALM      30.03R
Andover          N/A     56  54  93 CALM      30.03R
Trenton        CLEAR     63  63 100 CALM      30.00R FOG
Millville      MOCLDY    66  66 100 CALM      30.00R FOG
Atlantic City  NOT AVBL
Wrightstown    CLEAR     64  63  97 CALM      29.98S
Toms River     PTCLDY    63  62  97 CALM      30.01R
Belmar         PTCLDY    63  62  97 CALM      30.01R FOG
$$

PAZ047>061-062-071-221100-
EASTERN PENNSYLVANIA

CITY           SKY/WX    TMP DP  RH WIND       PRES   REMARKS
Philadelphia   CLOUDY    70  65  84 W5        30.01R
Allentown      CLOUDY    60  57  89 CALM      30.01R
Scranton       CLEAR     56  53  90 E6        30.03S
$$

CTZ002-004>006-009-010-012-RIZ004-006-007-MAZ004-011-015-221100-
SOUTHERN NEW ENGLAND
 IN CT

CITY           SKY/WX    TMP DP  RH WIND       PRES   REMARKS
Bradley INTL   PTCLDY    58  51  78 SW5       30.00R
Hartford       CLEAR     59  58  96 CALM      29.99R
Danbury        CLEAR     55  54  96 SW5       30.03R
Wtrbury/Oxford CLEAR     55  50  82 NW3       30.02R
Bridgeport     CLEAR     66  55  67 N3        30.00R
Meriden        CLEAR     55  55 100 CALM      30.00R
New Haven      PTCLDY    61  54  77 CALM      29.99
Chester        FAIR      63  52  67 CALM      30.00R
Groton         CLEAR     59  55  87 N3        29.98R
Wilimantic     CLEAR     57  54  89 CALM      30.00R

 IN RI

CITY           SKY/WX    TMP DP  RH WIND       PRES   REMARKS
Providence     PTCLDY    61  55  81 NW3       29.98R
Block Island   CLEAR     63  54  72 W6        29.99R
Westerly       CLEAR     65  52  62 NW5       29.99R
 IN MA

CITY           SKY/WX    TMP DP  RH WIND       PRES   REMARKS
Boston         CLEAR     66  52  60 W8        29.96
Worcester      CLEAR     59  48  67 W8        29.99R
Westfield      NOT AVBL
Provincetown   CLEAR     59  55  87 W6        29.96R
Nantucket      CLEAR     62  58  86 NW9       29.96R
$$

ANZ330-335-338-340-345-350-353-355-221100-
COASTAL MARINE OBSERVATIONS


STATION/POSITION TIME  SKY/WX   TEMP    WIND        PRES    VSBY  WAVE
                                AIR SEA DIR/SP/G                  HT/PER
                 (UTC)          (F)     (DEG/KT/KT) (MB)    (MI)  (FT/S)
NY HARB ENTRANCE 0950            66 64  330/  4/  6 1015.5          2/ 6
20 S FIRE ISLAND 0950            67 67  270/  4/  6 1015.1          3/ 6
GREAT SOUTH BAY  0930            67 74   40/  6/  8   N/A
23 SSW MONTAUK P 0950            64 62              1015.7          4/ 6
15 E BARNEGAT LI 0930               66                N/A           2/ 5
HUDSON CANYON    0950            67 65  280/  6/  6 1015.6          3/ 5
KINGS POINT      0942            64 66     CALM     1015.6
EXECUTION ROCKS  0945            65      70/  2/  2   N/A
CENTRAL LI SOUND 0930            68     350/  4/  6   N/A           0
EASTERN LI SOUND NOT AVBL
ROBBINS REEF     0936                   300/  2/  4 1016.1
$$


>>>>>>>>>>>>>>>>>>>>>>>>>>>> KEY <<<<<<<<<<<<<<<<<<<<<<<<<<<
>                                                          <
>     SKY/WX - Sky Condition/Present Weather               <
>     TMP    - Temperature in Fahrenheit                   <
>     DP     - Dew Point in Fahrenheit                     <
>     RH     - Relative Humidity in Percent                <
>     WIND   - Direction (from) and Speed in MPH           <
>     PRES   - Mean Sea Level Pressure (inches of Hg)      <
>     WCI    - Wind Chill Index                            <
>     VSB    - VISIBILITY IN MILES                         <
>     HX     - HEAT INDEX                                  <
>     TC     - TEMPERATURE IN CELSIUS                      <
>     VRB    - VARIABLE WIND DIRECTION                     <
>                                                          <
>>>>>>>>>>>>>>>>>>>>>>>>>>>> KEY <<<<<<<<<<<<<<<<<<<<<<<<<<<




USA.gov is the U.S. government's official web portal to all federal, state and local government web resources and services.